Vorticity
nan nan nan nan nan nan nan nan nan nan nan nan nan nan nan nan nan nan nan nan nan nan nan nan nan nan nan nan nan nan nan nan nan nan nan nan nan nan nan nan nan nan nan nan
nan 5 7 7 4 6 4 6 4 9 15 10 10 11 10 9 13 16 12 8 8 7 9 12 9 10 10 7 5 6 6 6 5 5 7 9 10 8 9 9 11 11 9 nan
nan 3 9 8 5 8 8 6 9 6 13 9 11 7 10 11 12 12 15 18 11 9 6 8 9 8 9 7 7 6 9 7 6 5 4 7 8 9 9 9 12 13 10 nan
nan 10 10 7 7 7 8 6 6 4 15 12 7 10 5 11 6 9 16 22 16 9 9 9 8 9 9 8 7 8 9 8 8 6 5 6 7 7 8 9 9 11 11 nan
nan 9 6 9 7 5 6 13 17 16 9 5 5 17 4 7 11 12 19 21 18 12 7 6 11 9 8 10 7 8 9 7 9 8 6 5 6 6 8 10 10 9 10 nan
nan 11 9 6 9 7 12 15 11 16 10 6 12 5 7 10 9 7 15 21 16 11 6 8 9 13 11 9 9 9 10 9 8 7 7 8 6 7 6 9 10 10 9 nan
nan 8 12 10 14 11 10 9 8 5 11 11 10 6 7 8 6 8 14 14 15 10 2 9 14 10 11 9 6 10 8 7 10 10 8 7 10 10 6 9 9 9 8 nan
nan 5 14 12 7 12 6 8 9 10 7 12 11 3 12 11 16 18 10 12 12 14 13 11 11 9 9 8 7 8 7 8 8 7 9 7 10 8 11 12 8 8 9 nan
nan 11 8 9 8 2 11 13 9 5 6 12 5 3 13 15 24 21 9 10 11 14 17 13 10 10 9 9 9 7 5 7 8 8 9 9 3 8 15 10 9 10 10 nan
nan 18 13 11 11 7 13 3 7 10 12 6 9 13 9 7 12 12 13 9 10 13 12 10 11 10 10 9 8 7 7 9 8 9 7 9 9 8 11 11 11 10 10 nan
nan 8 5 14 15 10 0 7 11 11 9 10 8 9 14 7 12 12 11 14 14 9 9 9 8 8 9 9 8 6 6 8 9 9 9 8 9 11 10 10 11 10 9 nan
nan 10 21 10 5 16 10 9 7 8 5 9 10 4 11 13 17 12 11 10 10 14 14 9 10 8 7 7 7 7 7 8 10 8 8 10 10 9 9 10 9 9 8 nan
nan 9 10 17 17 12 13 14 7 7 15 14 4 7 7 14 14 8 9 11 10 9 11 9 10 8 8 8 8 8 9 9 8 9 9 8 9 9 9 9 9 9 9 nan
nan 17 12 8 10 10 9 11 14 5 8 13 5 9 6 12 7 5 6 6 13 12 10 8 10 10 9 10 9 7 8 10 9 9 9 9 8 9 9 10 9 8 8 nan
nan 6 8 8 7 14 21 15 8 8 17 13 17 13 9 11 2 7 7 6 8 6 7 11 8 10 10 8 9 10 10 10 9 9 8 8 9 10 10 9 9 9 9 nan
nan 13 7 3 6 16 14 6 18 15 10 11 16 15 14 8 14 18 7 6 7 10 8 12 12 10 10 10 9 8 9 9 9 9 9 10 10 10 10 9 9 8 8 nan
nan 13 10 7 9 12 2 11 16 9 13 16 9 14 11 15 17 5 9 12 11 13 13 13 14 15 15 14 10 9 8 9 11 11 12 11 12 12 13 13 11 8 8 nan
nan 7 9 10 11 19 6 9 12 3 2 9 9 9 10 13 13 7 22 16 7 8 8 8 11 11 13 13 10 14 14 12 9 7 10 13 13 10 8 9 13 13 17 nan
nan 7 10 12 15 5 1 4 2 7 7 6 8 -1 4 8 14 5 8 15 16 13 10 9 7 6 8 11 18 15 9 13 13 10 8 7 8 8 7 4 3 8 10 nan
nan 11 12 9 9 11 4 1 10 12 13 11 3 10 2 -1 6 8 3 8 12 16 14 10 10 11 8 9 16 15 13 12 9 7 8 8 8 6 5 7 9 7 1 nan
nan 10 9 10 13 8 9 17 17 10 12 10 11 10 4 15 9 -1 3 13 14 10 14 16 10 10 9 13 12 11 12 9 9 8 9 9 7 8 8 8 9 7 4 nan
nan 10 10 12 9 0 9 22 15 11 15 12 10 8 13 15 10 10 13 8 9 8 10 12 11 9 11 11 11 9 10 12 9 8 7 8 7 10 10 10 13 17 19 nan
nan 14 10 14 8 6 10 11 4 14 15 14 14 15 9 5 11 11 6 9 8 8 9 10 9 7 9 10 10 9 9 14 12 10 11 9 10 9 9 14 14 18 23 nan
nan 10 9 8 12 16 12 11 5 4 26 26 17 19 12 8 7 11 7 8 7 10 11 10 9 10 9 9 9 10 10 12 14 14 15 16 13 8 10 13 15 16 14 nan
nan 8 12 10 10 7 8 11 5 -5 12 26 21 15 10 10 14 13 8 10 9 8 9 10 10 10 9 9 9 9 11 13 13 12 12 13 15 15 14 12 12 16 12 nan
nan nan nan nan nan nan nan nan nan nan nan nan nan nan nan nan nan nan nan nan nan nan nan nan nan nan nan nan nan nan nan nan nan nan nan nan nan nan nan nan nan nan nan nan
CAPE
0 0 0 0 0 0 0 0 0 0 0 0 0 0 5 3 25 110 121 139 175 201 244 285 434 650 684 1210 1249 1313 1514 1652 1801 1693 1210 533 427 169 82 228 518 744 570 267
0 0 0 0 0 0 0 0 0 0 0 0 0 0 0 0 0 0 4 85 196 239 228 250 530 883 874 1341 1325 1450 1641 1902 2021 1828 1229 788 194 52 0 119 449 959 876 408
0 0 0 0 0 0 0 0 0 0 0 0 0 0 0 0 0 0 0 7 117 295 323 360 559 1119 1115 1382 1310 1539 1870 2114 2181 1518 696 225 272 210 413 627 646 1025 809 398
0 0 0 0 0 0 0 0 0 0 0 0 0 0 0 0 0 0 0 19 125 228 364 480 504 1154 1415 1515 1503 1592 2200 2519 2060 1036 606 306 127 79 48 496 561 674 916 426
0 0 0 0 0 0 0 0 0 0 0 0 0 0 0 0 0 0 0 0 254 220 336 562 553 913 1635 1735 1661 1851 2509 2729 1812 1057 901 590 354 148 363 467 796 480 574 412
0 0 0 0 0 0 0 0 0 0 0 0 0 0 0 0 0 0 0 413 445 384 474 481 596 1064 1932 2302 1984 2620 2973 2716 2279 1454 1045 992 1058 979 1173 733 878 526 561 319
0 0 0 0 0 0 0 0 0 0 0 0 0 0 0 0 0 0 7 361 622 639 611 567 705 1352 2668 2669 2932 2266 2083 1677 1910 2023 1948 1768 1953 1551 970 685 485 414 315 238
0 0 0 0 0 0 0 0 0 0 0 0 0 0 0 0 0 0 0 16 52 597 786 827 1078 2013 2783 3109 2143 1423 908 748 1081 1192 885 1323 1238 884 858 1099 570 506 395 210
0 0 0 0 0 0 0 0 0 0 0 0 0 0 0 0 0 0 0 0 73 807 1034 1128 1567 2750 3205 2128 1427 997 467 367 602 819 1022 1392 166 276 1240 1302 917 696 359 242
0 0 0 0 0 0 0 0 0 0 0 0 0 0 0 51 0 70 69 471 1302 1514 1740 2672 2989 2757 2018 1309 759 555 665 911 1254 1455 1638 554 356 1088 1448 1191 934 562 388 210
5 0 0 0 0 0 0 0 0 0 0 0 0 0 0 573 553 684 1025 2339 2054 2498 2849 2545 2264 1812 1380 1166 815 824 958 1157 1498 1490 1603 1783 1507 1393 1551 1185 681 409 232 24
6 0 0 0 0 0 0 0 0 0 0 0 0 0 524 48 1046 1435 1790 2648 3163 3252 3136 2696 2475 2171 1519 1213 838 895 1263 1668 1467 1370 1595 1806 1940 1611 1097 1119 637 412 218 33
1 5 0 0 0 0 0 0 0 0 0 0 0 4 966 910 1593 1992 2253 2281 2273 2391 2525 2917 2736 2435 1966 1456 1153 1126 1140 1663 1575 747 1702 1944 1947 1365 1116 927 820 643 355 183
8 0 6 12 1 0 0 0 0 0 0 0 0 39 1037 1006 1014 731 1737 1954 2358 2686 2310 1994 1976 2301 2160 1899 1570 1541 1536 1455 1411 1939 1941 1999 1604 1468 1179 1125 1023 748 564 409
3 0 0 24 50 70 2 0 0 0 0 0 0 228 696 845 544 758 1604 2152 2436 2592 2436 2263 2096 2130 2142 2084 1945 1971 1782 1369 1285 2075 1953 1782 1431 1292 1107 1129 1029 904 594 490
0 0 0 9 28 155 328 686 263 647 746 683 120 794 541 226 60 760 1332 1684 2552 2437 2332 2240 2322 2388 2572 2502 2360 2227 1856 1506 1691 1918 1937 1671 1505 1236 1272 1120 1059 756 551 362
0 0 0 0 2 337 726 640 677 496 491 517 618 307 1013 1580 571 934 5 167 2147 2318 2252 2530 2417 2177 2622 2731 2524 2417 2113 1818 2156 2172 1934 1778 1424 1313 1169 1052 936 733 463 235
0 0 0 0 1 369 523 559 269 154 244 295 348 467 307 287 363 424 1133 1643 1682 1912 2549 2388 2382 2363 2331 2317 2708 2610 2270 2239 2361 1736 978 1056 1061 574 315 225 137 202 311 288
0 0 0 0 0 9 517 475 299 427 8 120 294 254 260 47 273 5 137 564 935 1449 1590 1250 1022 903 1256 1238 1793 2724 2503 2147 910 137 3 0 0 0 0 11 0 0 200 297
5 0 0 0 4 168 259 297 210 76 348 121 120 170 274 23 1 57 26 15 10 41 1347 1534 1127 369 161 135 211 425 395 451 138 4 0 0 0 10 10 44 7 19 0 191
76 31 22 32 12 627 394 389 198 31 0 0 51 0 77 64 0 0 256 297 337 424 798 1425 1392 718 45 0 0 0 0 33 4 0 0 0 0 0 0 0 0 0 0 10
0 43 0 0 78 268 102 778 458 21 0 0 0 0 0 0 0 132 264 321 347 462 773 1056 1082 1049 682 196 286 292 77 0 0 0 0 0 0 0 0 0 0 4 0 3
0 0 0 0 77 5 0 191 18 0 31 6 0 58 0 5 200 375 336 347 216 180 391 456 487 170 161 114 62 159 123 223 3 0 0 0 0 0 0 0 0 0 0 0
52 0 0 2 8 0 0 1 0 1 52 160 296 296 201 440 283 357 459 291 103 147 118 78 25 25 12 0 0 0 0 9 98 190 153 23 1 0 0 17 206 46 105 98
8 0 0 0 0 0 0 0 0 0 57 35 97 124 355 214 258 338 229 96 42 11 0 0 0 0 0 0 0 0 0 0 0 0 0 1 2 81 125 136 1 0 8 6
0 0 0 0 0 11 0 0 0 1 79 114 270 302 290 318 327 218 159 105 45 22 0 0 0 0 0 0 0 0 0 0 0 0 0 0 1 1 2 1 0 1 1 1